This is the latest recevied weather packets stored in our database for station/object N9OJR. If no packets are shown the sender has not sent any weather packets the latest 10 day(s).
| Time | Temp. | Humidity | Pressure | Rain* | Wind** | Luminosity | Snow |
|---|---|---|---|---|---|---|---|
| 1777734634 | 2.78° C | 92% | 1013.7 hPa | 0 mm | - | 95 W/m² | - |
| 1777734332 | 2.78° C | 92% | 1013.5 hPa | 0 mm | - | 108 W/m² | - |
| 1777734028 | 2.78° C | 93% | 1013.7 hPa | 0 mm | - | 103 W/m² | - |
| 1777733723 | 2.78° C | 92% | 1013.7 hPa | 0 mm | - | 105 W/m² | - |
| 1777733415 | 3.33° C | 92% | 1013.5 hPa | 0 mm | - | 88 W/m² | - |
| 1777733111 | 3.33° C | 92% | 1013.3 hPa | 0 mm | - | 86 W/m² | - |
| 1777732809 | 3.33° C | 92% | 1013.7 hPa | 0 mm | - | 55 W/m² | - |
| 1777732505 | 3.33° C | 92% | 1013.4 hPa | 0 mm | - | 75 W/m² | - |
| 1777732203 | 3.33° C | 92% | 1013 hPa | 0 mm | - | 92 W/m² | - |
| 1777731899 | 2.78° C | 91% | 1013.2 hPa | 0 mm | - | 95 W/m² | - |
| 1777731595 | 3.33° C | 90% | 1013 hPa | 0 mm | - | 93 W/m² | - |
| 1777731288 | 3.33° C | 90% | 1013 hPa | 0 mm | - | 89 W/m² | - |
| 1777730985 | 3.33° C | 92% | 1012.9 hPa | 0 mm | - | 155 W/m² | - |
| 1777730684 | 3.33° C | 93% | 1012.8 hPa | 0 mm | - | 110 W/m² | - |
| 1777730379 | 3.89° C | 93% | 1012.7 hPa | 0 mm | - | 75 W/m² | - |
| 1777730075 | 3.89° C | 94% | 1012.5 hPa | 0 mm | - | 109 W/m² | - |
| 1777729772 | 3.33° C | 95% | 1012.7 hPa | 0 mm | - | 100 W/m² | - |
| 1777729469 | 3.33° C | 95% | 1012.5 hPa | 0 mm | - | 51 W/m² | - |
| 1777729166 | 3.89° C | 95% | 1012.5 hPa | 0 mm | - | 68 W/m² | - |
| 1777728862 | 3.33° C | 94% | 1012.5 hPa | 0 mm | - | 96 W/m² | - |
| 1777728560 | 3.33° C | 93% | 1012.5 hPa | 0 mm | - | 80 W/m² | - |
| 1777728256 | 3.89° C | 92% | 1012.5 hPa | 0 mm | - | 98 W/m² | - |
| 1777727954 | 3.89° C | 91% | 1012.5 hPa | 0 mm | - | 76 W/m² | - |
| 1777727650 | 4.44° C | 90% | 1012.4 hPa | 0 mm | - | 101 W/m² | - |
| 1777727348 | 4.44° C | 90% | 1012.3 hPa | 0 mm | - | 163 W/m² | - |
* Rain latest hour (hover to see other rain measurements)
** Current wind speed in m/s (hover to see current wind gust speed)